Tracking 32420 objects as of 8-Dec-2025
HD Live streaming from Space Station
objects crossing your sky now

METEOR 1-14

Track METEOR 1-14 now!
10-day predictions
METEOR 1-14 is classified as:


NORAD ID: 6392
Int'l Code: 1973-015A
Perigee: 835.1 km
Apogee: 911.3 km
Inclination: 81.2 °
Period: 102.3 minutes
Semi major axis: 7244 km
RCS: 4.8967 m2 (large)
Launch date: March 20, 1973
Source: Commonwealth of Independent States (former USSR) (CIS)
Launch site: PLESETSK MISSILE AND SPACE COMPLEX (PKMTR)
Your satellite tracking list
Your tracking list is empty




NASA's NSSDC Master Catalog

Two Line Element Set (TLE):
1 06392U 73015A   25342.31747102  .00000244  00000-0  13434-3 0  9995
2 06392  81.2325 113.4627 0052570  20.1832 340.1399 14.08049287705837
Source of the keplerian elements: AFSPC